Weather History for Glasgow, United Kingdom

Change the Weather History Date:

Friday, March 16, 2012

  Actual Average Record
Temperature  
Mean Temperature 46 °F -  
Max Temperature 50 °F 50 °F 59 °F (2005)
Min Temperature 42 °F 36 °F 24 °F (2001)
Degree Days  
Heating Degree Days 19    
Moisture  
Dew Point 46 °F    
Average Humidity 92    
Maximum Humidity 100    
Minimum Humidity 76    
Precipitation  
Precipitation 0.00 in - - ()
Sea Level Pressure  
Sea Level Pressure 29.80 in    
Wind  
Wind Speed 9 mph ()    
Max Wind Speed 22 mph    
Max Gust Speed -    
Visibility 5.5 miles    
Events Rain    
Averages and records for this station are not official NWS values.
T = Trace of Precipitation, MM = Missing Value Source: Averaged Metar Reports

Daily Weather History Graph

Daily Weather History Graph

Search for Another Location

Airport:

Trip Planner

Search our weather history database for the weather conditions in past years. The results will help you decide how hot, cold, wet, or windy it might be!

Date:

Astronomy

Mar. 16, 2012 Rise Set
Actual Time 6:29 AM GMT 6:24 PM GMT
Civil Twilight 5:52 AM GMT 7:01 PM GMT
Nautical Twilight 5:09 AM GMT 7:44 PM GMT
Astronomical Twilight 4:23 AM GMT 8:30 PM GMT
Moon 3:37 AM GMT (3/16) 11:30 AM GMT (3/16)
Length of Visible Light 13h 08m
Length of Day
11h 54m
Waning Crescent, 34% of the Moon is Illuminated
Mar 16
Waning Crescent
Mar 22
New
Mar 30
First Quarter
Apr 6
Full
Apr 13
Last Quarter

Hourly Weather History & Observations

Time (GMT) Temp. Windchill Dew Point Humidity Pressure Visibility Wind Dir Wind Speed Gust Speed Precip Events Conditions
12:20 AM 46.4 °F 42.9 °F 44.6 °F 93% 29.98 in 4.3 mi South 6.9 mph - N/A   Overcast
12:50 AM 46.4 °F 42.4 °F 44.6 °F 93% 29.95 in 5.0 mi SE 8.1 mph - N/A Rain Light Rain
1:20 AM 46.4 °F 43.5 °F 44.6 °F 93% 29.95 in 3.1 mi SE 5.8 mph - N/A Rain Light Rain
1:50 AM 46.4 °F 44.3 °F 44.6 °F 93% 29.92 in - East 4.6 mph - N/A Rain Light Rain
2:20 AM 46.4 °F 44.3 °F 46.4 °F 100% 29.92 in 3.1 mi ENE 4.6 mph - N/A Rain Rain
2:50 AM 48.2 °F - 46.4 °F 93% 29.89 in 3.7 mi East 4.6 mph - N/A Rain Light Rain
3:20 AM 50.0 °F - 48.2 °F 94% 29.89 in 5.0 mi South 8.1 mph - N/A Rain Rain
3:50 AM 50.0 °F - 48.2 °F 94% 29.86 in 5.6 mi South 12.7 mph - N/A Rain Rain
4:20 AM 50.0 °F - 46.4 °F 87% 29.86 in 5.6 mi SSW 10.4 mph - N/A Rain Rain
4:50 AM 50.0 °F - 48.2 °F 94% 29.86 in 6.2 mi SSW 11.5 mph - N/A Rain Light Rain
5:20 AM 50.0 °F - 48.2 °F 94% 29.83 in 6.2 mi South 12.7 mph - N/A Rain Light Rain
5:50 AM 50.0 °F - 48.2 °F 94% 29.83 in 6.2 mi South 13.8 mph - N/A Rain Light Rain
6:20 AM 50.0 °F - 48.2 °F 94% 29.80 in 6.2 mi South 12.7 mph - N/A Rain Light Rain
6:50 AM 50.0 °F - 48.2 °F 94% 29.80 in 5.0 mi SSW 13.8 mph - N/A Rain Rain
7:20 AM 50.0 °F - 48.2 °F 94% 29.80 in 5.0 mi SSW 16.1 mph - N/A Rain Light Rain
7:50 AM 50.0 °F - 48.2 °F 94% 29.80 in 5.0 mi SSW 18.4 mph - N/A Rain Light Rain
8:20 AM 50.0 °F - 48.2 °F 94% 29.80 in 5.0 mi SSW 19.6 mph - N/A Rain Light Rain
8:50 AM 50.0 °F - 48.2 °F 94% 29.80 in 3.7 mi SSW 19.6 mph - N/A Rain Light Rain
9:20 AM 50.0 °F - 48.2 °F 94% 29.80 in - SSW 21.9 mph - N/A   Light Drizzle
9:50 AM 50.0 °F - 48.2 °F 94% 29.80 in 5.0 mi SW 18.4 mph - N/A Rain Light Rain
10:20 AM 50.0 °F - 48.2 °F 94% 29.80 in 3.7 mi WSW 17.3 mph - N/A Rain Rain
10:50 AM 50.0 °F - 48.2 °F 94% 29.83 in 5.0 mi WSW 16.1 mph - N/A Rain Light Rain
11:20 AM 50.0 °F - 48.2 °F 94% 29.83 in 4.3 mi SW 13.8 mph - N/A Rain Light Rain
11:50 AM 50.0 °F - 48.2 °F 94% 29.80 in 5.0 mi WSW 12.7 mph - N/A Rain Light Rain
12:20 PM 50.0 °F - 48.2 °F 94% 29.80 in 5.6 mi WSW 10.4 mph - N/A Rain Light Rain
12:50 PM 48.2 °F - 46.4 °F 93% 29.80 in 5.6 mi WSW 10.4 mph - N/A Rain Light Rain
1:20 PM 48.2 °F - 46.4 °F 93% 29.80 in 5.6 mi West 8.1 mph - N/A Rain Light Rain
1:50 PM 50.0 °F - 48.2 °F 94% 29.80 in 6.2 mi WSW 11.5 mph - N/A Rain Light Rain
2:20 PM 50.0 °F - 46.4 °F 87% 29.80 in 6.2 mi SW 11.5 mph - N/A Rain Light Rain
2:50 PM 50.0 °F - 44.6 °F 82% 29.77 in 6.2 mi SW 11.5 mph - N/A Rain Light Rain
3:20 PM 50.0 °F - 42.8 °F 76% 29.77 in 6.2 mi SW 10.4 mph - N/A Rain Light Rain
3:50 PM 48.2 °F - 42.8 °F 82% 29.77 in 6.2 mi SSW 10.4 mph - N/A Rain Light Rain
4:20 PM 48.2 °F - 44.6 °F 87% 29.77 in 6.2 mi SW 9.2 mph - N/A Rain Light Rain
4:50 PM 46.4 °F 41.5 °F 44.6 °F 93% 29.74 in 6.2 mi SW 10.4 mph - N/A Rain Light Rain
5:20 PM 46.4 °F 43.5 °F 44.6 °F 93% 29.74 in 6.2 mi WSW 5.8 mph - N/A Rain Light Rain
5:50 PM 46.4 °F 42.4 °F 44.6 °F 93% 29.74 in 6.2 mi WSW 8.1 mph - N/A Rain Light Rain
6:20 PM 46.4 °F 41.5 °F 42.8 °F 87% 29.74 in 6.2 mi SW 10.4 mph - N/A Rain Light Rain
6:50 PM 44.6 °F 41.4 °F 42.8 °F 93% 29.74 in 6.2 mi SW 5.8 mph - N/A   Mostly Cloudy
7:20 PM 44.6 °F 40.2 °F 42.8 °F 93% 29.74 in 6.2 mi SW 8.1 mph - N/A   Mostly Cloudy
7:50 PM 44.6 °F 40.7 °F 42.8 °F 93% 29.74 in 6.2 mi SW 6.9 mph - N/A   Mostly Cloudy
8:20 PM 44.6 °F 43.1 °F 42.8 °F 93% 29.74 in 6.2 mi Variable 3.5 mph - N/A   Mostly Cloudy
8:50 PM 44.6 °F 40.7 °F 42.8 °F 93% 29.74 in 6.2 mi SW 6.9 mph - N/A   Mostly Cloudy
9:20 PM 44.6 °F 40.2 °F 42.8 °F 93% 29.74 in 6.2 mi WSW 8.1 mph - N/A Rain Light Rain
9:50 PM 44.6 °F 40.7 °F 42.8 °F 93% 29.74 in 6.2 mi SW 6.9 mph - N/A   Mostly Cloudy
10:20 PM 44.6 °F 41.4 °F 42.8 °F 93% 29.74 in 6.2 mi SW 5.8 mph - N/A   Scattered Clouds
10:50 PM 42.8 °F 40.1 °F 41.0 °F 93% 29.74 in 6.2 mi West 4.6 mph - N/A   Partly Cloudy
11:20 PM 44.6 °F 39.7 °F 41.0 °F 87% 29.74 in 6.2 mi SSW 9.2 mph - N/A Rain Light Rain
11:50 PM 44.6 °F 40.2 °F 42.8 °F 93% 29.77 in 6.2 mi SW 8.1 mph - N/A Rain Light Rain